Regional Weather Roundup
Issued by NWS

Home | Current Version | Previous Version | Graphics & Text | Print | Product List | Glossary On
Versions: 1 2 3 4 5 6 7 8 9 10 11 12 13 14 15 16 17 18 19 20 21 22 23 24 25 26 27 28 29 30 31 32 33 34 35 36 37 38 39 40 41 42 43 44 45 46 47 48 49 50
000
ASUS43 KIND 270609
RWRIN

WEATHER ROUNDUP FOR INDIANA
NATIONAL WEATHER SERVICE INDIANAPOLIS IN
100 AM EST THU NOV 27 2014

NOTE: "FAIR" INDICATES FEW OR NO CLOUDS BELOW 12,000 FEET WITH NO
SIGNIFICANT WEATHER AND/OR OBSTRUCTIONS TO VISIBILITY.

* - STATION DOES NOT REPORT WEATHER SUCH AS PRECIPITATION OR FOG.

+ - STATION NOT QUALITY CONTROLLED BY THE NATIONAL WEATHER SERVICE.
    USE DATA WITH CAUTION...ESPECIALLY DEWPOINT AND RELATIVE
    HUMIDITY OBSERVATIONS.

INZ001>003-010>013-019-020-270700-
NORTHWEST INDIANA

CITY           SKY/WX    TMP DP  RH WIND       PRES   REMARKS
GARY /AIRPORT/ CLOUDY    31  24  75 SW5       30.18R WCI  26
KNOX *+        CLOUDY    25  21  87 CALM      30.15S
LA PORTE +     CLOUDY    29  25  84 CALM      30.16S
6HR MIN TEMP:  23; 6HR MAX TEMP:  29;

MICHIGAN CITY+ CLOUDY    27  21  80 CALM      30.17S
MONTICELLO +   CLOUDY    28  21  76 N6        30.15S WCI  21
RENSSELAER +   MOCLDY    25  23  93 NW6       30.18R WCI  18
VALPARAISO     CLOUDY    26  21  81 W3        30.16S
6HR MIN TEMP:  23; 6HR MAX TEMP:  27;


$$

LMZ046-743>745-270700-
SOUTHERN LAKE MICHIGAN

STATION/POSITION TIME  TEMP WIND        PRES
                       AIR  DIR/SP/G
                 (UTC) (F)  (DEG/KT/KT) (MB)
MICHIGAN CITY    0600   28  160/  4/  5   N/A

$$

INZ004-005-014>016-021>024-270700-
NORTH CENTRAL INDIANA

CITY           SKY/WX    TMP DP  RH WIND       PRES   REMARKS
GOSHEN         CLOUDY    28  21  75 NW7       30.13R WCI  21
6HR MIN TEMP:  28; 6HR MAX TEMP:  28;

LOGANSPORT +   CLOUDY    28  21  74 N9        30.15S WCI  20
PERU/GRISSOM   CLOUDY    28  23  82 N9        30.13R WCI  19
6HR MIN TEMP:  27; 6HR MAX TEMP:  28;

ROCHESTER +    CLOUDY    30  25  80 NW3       30.14F
SOUTH BEND     CLOUDY    28  21  75 W5        30.15S WCI  23
6HR MIN TEMP:  25; 6HR MAX TEMP:  28;

WARSAW +       CLOUDY    28  23  80 NW3       30.13S

$$

INZ006>009-017-018-025>027-270700-
NORTHEAST INDIANA

CITY           SKY/WX    TMP DP  RH WIND       PRES   REMARKS
ANGOLA *+      CLOUDY    27  23  86 N6        30.10S WCI  20
AUBURN +       CLOUDY    30  23  74 N6        30.11S WCI  24
FORT WAYNE     CLOUDY    28  22  78 NW8       30.12S WCI  20
6HR MIN TEMP:  28; 6HR MAX TEMP:  29;

HUNTINGTON +   CLOUDY    28  22  78 N5        30.12S WCI  22
6HR MIN TEMP:  28; 6HR MAX TEMP:  28;


$$

INZ028-029-035-036-043>045-051>053-270700-
WEST CENTRAL INDIANA

CITY           SKY/WX    TMP DP  RH WIND       PRES   REMARKS
GREENCASTLE +  CLOUDY    28  23  80 N8        30.13R WCI  20
LAFAYETTE      CLOUDY    27  20  75 N8        30.16R WCI  19
6HR MIN TEMP:  25; 6HR MAX TEMP:  27;

TERRE HAUTE    CLOUDY    29  23  78 N8        30.15R WCI  21
6HR MIN TEMP:  29; 6HR MAX TEMP:  33;


$$

INZ030>032-037>040-046>048-054>057-064-065-270700-
CENTRAL INDIANA

CITY           SKY/WX    TMP DP  RH WIND       PRES   REMARKS
CP ATTERBURY + CLOUDY    30  27  86 N7        30.11S WCI  23
FRANKFORT +    CLOUDY    28  23  80 NW9       30.15R WCI  19
INDIANAPOLIS   CLOUDY    28  21  75 N8        30.11R WCI  20
6HR MIN TEMP:  27; 6HR MAX TEMP:  31;

-EAGLE CREEK   CLOUDY    28  21  75 N7        30.11R WCI  21
6HR MIN TEMP:  27; 6HR MAX TEMP:  31;

KOKOMO *+      CLOUDY    28  18  64 N12       30.13S WCI  18
MARION +         N/A     28  21  76 N8        30.12S HAZE    WCI  19
MT COMFORT *+  MOCLDY    28  19  69 N7        30.10S WCI  21
SHELBYVILLE    CLOUDY    30  22  72 N9        30.10R WCI  22
6HR MIN TEMP:  30; 6HR MAX TEMP:  31;

ZIONSVILLE +   CLOUDY    28  21  75 N9        30.12R WCI  19
6HR MIN TEMP:  27; 6HR MAX TEMP:  29;


$$

INZ033-034-041-042-049-050-058-059-270700-
EAST CENTRAL INDIANA

CITY           SKY/WX    TMP DP  RH WIND       PRES   REMARKS
MUNCIE         CLOUDY    28  22  78 CALM      30.09S
6HR MIN TEMP:  28; 6HR MAX TEMP:  28;


$$

INZ060-061-067>069-081>083-085>088-270700-
SOUTHWEST INDIANA

CITY           SKY/WX    TMP DP  RH WIND       PRES   REMARKS
EVANSVILLE     LGT SNOW  34  31  88 N8        30.12R FOG     WCI  27
6HR MIN TEMP:  33; 6HR MAX TEMP:  37; 6HR PCP:  0.14;

HUNTINGBURG *+ CLOUDY    34  28  80 NW10      30.10R WCI  26
6HR MIN TEMP:  34; 6HR MAX TEMP:  37;

WASHINGTON +   LGT SNOW  32  32 100 N10       30.12R WCI  24
6HR MIN TEMP:  32; 6HR MAX TEMP:  36;


$$

INZ062-063-066-070>080-084-089>092-270700-
SOUTH CENTRAL AND SOUTHEAST INDIANA

CITY           SKY/WX    TMP DP  RH WIND       PRES   REMARKS
BLOOMINGTON    CLOUDY    30  25  81 N8        30.10R WCI  22
6HR MIN TEMP:  30; 6HR MAX TEMP:  33; 6HR PCP: TRACE;


$$



USA.gov is the U.S. government's official web portal to all federal, state and local government web resources and services.